Regional Weather Roundup
Issued by NWS Burlington, VT

Home | Current Version | Previous Version | Text Only | Print | Product List | Glossary On
Versions: 1 2 3 4 5 6 7 8 9 10 11 12 13 14 15 16 17 18 19 20 21 22 23 24 25 26 27 28 29 30 31 32 33 34 35 36 37 38 39 40 41 42 43 44 45 46 47 48 49 50
000
ASUS41 KBTV 211830
RWRBTV
VERMONT REGIONAL WEATHER ROUNDUP
NATIONAL WEATHER SERVICE BURLINGTON VT
200 PM EDT TUE OCT 21 2014

NOTE: "FAIR" INDICATES FEW OR NO CLOUDS BELOW 12,000 FEET WITH NO
SIGNIFICANT WEATHER AND/OR OBSTRUCTIONS TO VISIBILITY.

* THESE REPORTS ARE NOT UNDER NWS QUALITY CONTROL AND/OR DO NOT
  REPORT WEATHER SUCH AS PRECIPITATION AND FOG.

VTZ001>019-211900-
_____VERMONT_____


CITY           SKY/WX    TMP DP  RH WIND       PRES   REMARKS
BURLINGTON     LGT RAIN  49  44  83 NE5       29.98
6HR MIN TEMP:  45; 6HR MAX TEMP:  49; 6HR PCP:  0.05;

MONTPELIER     LGT RAIN  45  44  97 CALM      30.02S FOG
6HR MIN TEMP:  40; 6HR MAX TEMP:  44; 6HR PCP:  0.20;

MORRISVILLE    LGT RAIN  47  45  93 NW5       30.01  FOG
6HR MIN TEMP:  41; 6HR MAX TEMP:  47; 6HR PCP:  0.08;

ST. JOHNSBURY*   N/A     46  45  96 MISG      29.98
6HR MIN TEMP:  39; 6HR MAX TEMP:  46; 6HR PCP:  0.08;

LYNDONVILLE*   RAIN      47  43  85 NW3       30.01S
MIDDLEBURY*    LGT RAIN  50  50 100 N5        29.95F
6HR MIN TEMP:  45; 6HR MAX TEMP:  50; 6HR PCP:  0.03;

RUTLAND*       CLOUDY    48  45  87 SW5       29.94F
6HR MIN TEMP:  46; 6HR MAX TEMP:  48;

SPRINGFIELD    LGT RAIN  49  46  90 CALM      29.96
6HR MIN TEMP:  43; 6HR MAX TEMP:  49; 6HR PCP:  0.04;

HIGHGATE*      DRIZZLE   48  47  95 CALM      30.00S
6HR MIN TEMP:  43; 6HR MAX TEMP:  48;

NEWPORT*       RAIN      46  44  93 N5        30.02S
BENNINGTON     CLOUDY    52  49  89 CALM      29.91
6HR MIN TEMP:  48; 6HR MAX TEMP:  52; 6HR PCP:  0.10;

GALLUP MILLS*    N/A     45 N/A N/A MISG        N/A
UNION VILLAGE*   N/A     48 N/A N/A MISG        N/A

_____LAKE CHAMPLAIN_____


CITY           SKY/WX    TMP DP  RH WIND       PRES   REMARKS
BURTON ISLAND*   N/A     48  46  93 N1          N/A
COLCHESTER RF*   N/A     50  46  87 NE6         N/A
DIAMOND ISL*     N/A     48  46  93 NW13        N/A

$$

NYZ007-026>031-035-052-083-211900-
_____NORTHERN NEW YORK_____


CITY           SKY/WX    TMP DP  RH WIND       PRES   REMARKS
PLATTSBURGH    LGT RAIN  47  46  97 N13       29.99  FOG
6HR MIN TEMP:  44; 6HR MAX TEMP:  49; 6HR PCP:  0.07;

SARANAC LAKE   LGT RAIN  44  42  93 E9        29.92
6HR MIN TEMP:  40; 6HR MAX TEMP:  44; 6HR PCP:  0.09;

MASSENA        CLOUDY    45  41  86 NE15      30.00
6HR MIN TEMP:  44; 6HR MAX TEMP:  46; 6HR PCP: TRACE;

OGDENSBURG*    CLOUDY    46  45  93 NE10G18   29.97S
POTSDAM*       LGT RAIN  45  45 100 E9G17     29.97S
PARISHVILLE*     N/A     48 N/A N/A NE1         N/A
WATERTOWN      LGT RAIN  51  45  79 NE12      29.91
6HR MIN TEMP:  50; 6HR MAX TEMP:  53; 6HR PCP:  0.04;

FT DRUM        CLOUDY    48  48 100 NE13      29.91R
6HR MIN TEMP:  46; 6HR MAX TEMP:  50; 6HR PCP:  0.02;

ALBANY         MOCLDY    54  49  83 CALM      29.91
6HR MIN TEMP:  49; 6HR MAX TEMP:  54; 6HR PCP:  0.16;

GLENS FALLS    LGT RAIN  51  47  86 N7        29.93
6HR MIN TEMP:  46; 6HR MAX TEMP:  51; 6HR PCP:  0.07;


$$
NHZ002-005-011-211900-
_____NEW HAMPSHIRE_____


CITY           SKY/WX    TMP DP  RH WIND       PRES   REMARKS
LEBANON        CLOUDY    50  46  86 N5        29.96
6HR MIN TEMP:  44; 6HR MAX TEMP:  50; 6HR PCP:  0.06;

KEENE          MOCLDY    55  45  67 NW6       29.93
6HR MIN TEMP:  45; 6HR MAX TEMP:  55;

MT WASHINGTON  SNOW      32  32 100 S26G32      N/A  VSB 0
6HR MIN TEMP:  28; 6HR MAX TEMP:  31; 6HR PCP:  0.07;

PLYMOUTH       CLOUDY    50  48  92 CALM      29.98F
6HR MIN TEMP:  40; 6HR MAX TEMP:  49;

WHITEFIELD     LGT RAIN  48  44  86 NE3       29.99F
6HR MIN TEMP:  40; 6HR MAX TEMP:  48; 6HR PCP:  0.05;


$$

_____REGIONAL QUEBEC LOCATIONS_____


CITY           SKY/WX    TMP DP  RH WIND       PRES   REMARKS
MONTREAL       LGT RAIN  45  39  81 NE15G22   30.04
QUEBEC CITY    MOCLDY    45  34  65 E10G17    30.11
SHERBROOKE     LGT RAIN  46  45  93 NE6       30.03S

_____REGIONAL ONTARIO LOCATIONS_____


CITY           SKY/WX    TMP DP  RH WIND       PRES   REMARKS
OTTAWA         CLOUDY    43  39  87 NE15      30.02

______KEY______
VSB  - VISIBILITY IN MILES
WCI  - WIND CHILL INDEX
HX   - HEAT INDEX
$$
NNNN



USA.gov is the U.S. government's official web portal to all federal, state and local government web resources and services.